Location: Pradons
(44.4746°N, 4.3578°E)
Time: 11:27:37
(UTC+00:00)

ATLAS 2AS CENTAUR R/B - Pass Details

Date: 09 April 2020
Orbit: 931 x 1280 km, 63.7° (Epoch: 31 May)

Event Time Altitude Azimuth Distance (km) Brightness Sun altitude
Rises 19:56:58 0° 319° (NW) 4,152 7.2 -16.9°
Reaches altitude 10° 19:59:56 10° 314° (NW) 3,141 6.4 -17.3°
Maximum altitude 20:07:00 47° 244° (WSW) 1,471 3.6 -18.4°
Enters shadow 20:12:56 13° 175° (S) 2,698 4.5 -19.3°
